IGO189 VOMM-VOBL

Flight info

Callsign IGO189
Flight time 0h 37m
Altitude 16000
Route MMV W117 BIA
Aircraft A320/M-SDE3FGHIRWY/LB1

Departure

Time 2026-04-20 14:59
Airport Chennai International Airport (VOMM)

Arrival

Time 2026-04-20 15:36
Airport Kempegowda International Airport Bengaluru (VOBL)
Time Latitude Longitude Altitude Speed Heading
2026-04-20 14:37 12.98501 80.16709 55 ft 0 kts 160°
2026-04-20 14:50 12.98510 80.16706 31 ft 4 kts 159°
2026-04-20 14:51 12.98535 80.16696 51 ft 4 kts 146°
2026-04-20 14:51 12.98551 80.16676 51 ft 4 kts 98°
2026-04-20 14:51 12.98551 80.16658 52 ft 0 kts 70°
2026-04-20 14:53 12.98561 80.16687 49 ft 11 kts 69°
2026-04-20 14:54 12.98625 80.16766 52 ft 15 kts 353°
2026-04-20 14:54 12.98659 80.16756 53 ft 2 kts 337°
2026-04-20 14:54 12.98693 80.16741 53 ft 9 kts 339°
2026-04-20 14:54 12.98762 80.16755 50 ft 13 kts 62°
2026-04-20 14:55 12.98788 80.16817 54 ft 3 kts 359°
2026-04-20 14:55 12.98783 80.16796 51 ft 6 kts 246°
2026-04-20 14:55 12.98752 80.16726 49 ft 15 kts 248°
2026-04-20 14:55 12.98703 80.16593 51 ft 25 kts 250°
2026-04-20 14:56 12.98638 80.16422 53 ft 25 kts 248°
2026-04-20 14:56 12.98574 80.16247 55 ft 27 kts 248°
2026-04-20 14:56 12.98507 80.16073 51 ft 24 kts 249°
2026-04-20 14:56 12.98449 80.15916 53 ft 24 kts 248°
2026-04-20 14:57 12.98378 80.15755 51 ft 26 kts 243°
2026-04-20 14:57 12.98381 80.15578 55 ft 20 kts 285°
2026-04-20 14:57 12.98416 80.15458 51 ft 17 kts 300°
2026-04-20 14:57 12.98481 80.15469 51 ft 10 kts 62°
2026-04-20 14:58 12.98492 80.15498 56 ft 0 kts 70°
2026-04-20 14:58 12.98501 80.15523 54 ft 24 kts 70°
2026-04-20 14:58 12.98648 80.15922 51 ft 92 kts 68°
2026-04-20 14:58 12.98941 80.16705 53 ft 141 kts 69°
2026-04-20 14:59 12.99343 80.17741 283 ft 162 kts 72°
2026-04-20 14:59 12.99756 80.18792 911 ft 159 kts 73°
2026-04-20 14:59 13.00224 80.19843 1343 ft 174 kts 56°
2026-04-20 14:59 13.01313 80.20573 1551 ft 206 kts 16°
2026-04-20 15:00 13.02811 80.20504 1729 ft 232 kts 339°
2026-04-20 15:00 13.04181 80.19510 1986 ft 254 kts 306°
2026-04-20 15:00 13.04937 80.17825 2343 ft 270 kts 276°
2026-04-20 15:00 13.04900 80.15894 3017 ft 274 kts 260°
2026-04-20 15:01 13.04634 80.13939 3776 ft 278 kts 259°
2026-04-20 15:01 13.04323 80.11970 4553 ft 282 kts 259°
2026-04-20 15:01 13.03985 80.09976 5296 ft 285 kts 259°
2026-04-20 15:01 13.03618 80.07963 6063 ft 289 kts 259°
2026-04-20 15:02 13.03220 80.05930 6774 ft 293 kts 259°
2026-04-20 15:02 13.02803 80.03871 7502 ft 296 kts 259°
2026-04-20 15:02 13.02519 80.01775 8211 ft 299 kts 270°
2026-04-20 15:02 13.02712 79.99649 8927 ft 301 kts 284°
2026-04-20 15:03 13.03231 79.97562 9646 ft 304 kts 286°
2026-04-20 15:03 13.03768 79.95455 10080 ft 318 kts 286°
2026-04-20 15:03 13.04355 79.93157 10223 ft 341 kts 286°
2026-04-20 15:03 13.04953 79.90792 10606 ft 351 kts 286°
2026-04-20 15:04 13.05564 79.88348 11157 ft 356 kts 285°
2026-04-20 15:04 13.06180 79.85874 11744 ft 360 kts 285°
2026-04-20 15:04 13.06809 79.83338 12343 ft 364 kts 285°
2026-04-20 15:04 13.07435 79.80814 12917 ft 368 kts 285°
2026-04-20 15:05 13.08063 79.78290 13475 ft 372 kts 285°
2026-04-20 15:05 13.08714 79.75674 13998 ft 375 kts 285°
2026-04-20 15:05 13.09362 79.73074 14534 ft 378 kts 285°
2026-04-20 15:05 13.09792 79.71341 14896 ft 379 kts 285°
2026-04-20 15:06 13.09801 79.71302 14903 ft 379 kts 285°
2026-04-20 15:06 13.10421 79.68823 15413 ft 381 kts 285°
2026-04-20 15:06 13.11080 79.66178 15738 ft 383 kts 285°
2026-04-20 15:06 13.11738 79.63528 15825 ft 386 kts 285°
2026-04-20 15:07 13.12402 79.60840 15835 ft 390 kts 285°
2026-04-20 15:07 13.13069 79.58141 15842 ft 391 kts 285°
2026-04-20 15:07 13.13737 79.55438 15842 ft 391 kts 285°
2026-04-20 15:07 13.14406 79.52730 15846 ft 391 kts 285°
2026-04-20 15:08 13.15075 79.50024 15849 ft 391 kts 285°
2026-04-20 15:08 13.15742 79.47319 15855 ft 391 kts 285°
2026-04-20 15:08 13.16412 79.44610 15860 ft 392 kts 285°
2026-04-20 15:08 13.17086 79.41901 15863 ft 391 kts 285°
2026-04-20 15:09 13.17756 79.39201 15865 ft 391 kts 285°
2026-04-20 15:09 13.18426 79.36499 15873 ft 391 kts 285°
2026-04-20 15:09 13.19099 79.33788 15879 ft 391 kts 285°
2026-04-20 15:09 13.19769 79.31085 15881 ft 391 kts 285°
2026-04-20 15:10 13.20436 79.28380 15884 ft 391 kts 285°
2026-04-20 15:10 13.21104 79.25673 15892 ft 392 kts 285°
2026-04-20 15:10 13.21772 79.22965 15897 ft 392 kts 285°
2026-04-20 15:10 13.22442 79.20252 15902 ft 392 kts 285°
2026-04-20 15:11 13.23109 79.17542 15910 ft 392 kts 285°
2026-04-20 15:11 13.23771 79.14851 15897 ft 389 kts 285°
2026-04-20 15:11 13.24433 79.12155 15893 ft 390 kts 285°
2026-04-20 15:11 13.25097 79.09457 15897 ft 390 kts 285°
2026-04-20 15:12 13.25762 79.06763 15900 ft 390 kts 285°
2026-04-20 15:12 13.26427 79.04064 15909 ft 390 kts 285°
2026-04-20 15:12 13.27090 79.01365 15906 ft 390 kts 285°
2026-04-20 15:12 13.27750 78.98670 15909 ft 390 kts 284°
2026-04-20 15:13 13.28410 78.95968 15913 ft 390 kts 284°
2026-04-20 15:13 13.29050 78.93265 15913 ft 390 kts 281°
2026-04-20 15:13 13.29293 78.90491 15921 ft 390 kts 270°
2026-04-20 15:13 13.29325 78.87710 15925 ft 391 kts 271°
2026-04-20 15:14 13.29373 78.84915 15929 ft 391 kts 271°
2026-04-20 15:14 13.29430 78.82128 15934 ft 391 kts 271°
2026-04-20 15:14 13.29485 78.79340 15937 ft 391 kts 271°
2026-04-20 15:14 13.29535 78.76547 15940 ft 391 kts 271°
2026-04-20 15:15 13.29579 78.73756 15945 ft 391 kts 271°
2026-04-20 15:15 13.29620 78.70970 15946 ft 390 kts 271°
2026-04-20 15:15 13.29661 78.68181 15948 ft 390 kts 271°
2026-04-20 15:15 13.29704 78.65399 15951 ft 390 kts 271°
2026-04-20 15:16 13.29748 78.62611 15952 ft 390 kts 271°
2026-04-20 15:16 13.29793 78.59829 15959 ft 390 kts 271°
2026-04-20 15:16 13.29837 78.57079 15961 ft 390 kts 271°
2026-04-20 15:16 13.29878 78.54296 15966 ft 390 kts 271°
2026-04-20 15:17 13.29918 78.51505 15970 ft 390 kts 271°
2026-04-20 15:17 13.29956 78.48719 15974 ft 390 kts 271°
2026-04-20 15:17 13.29994 78.45935 15975 ft 390 kts 271°
2026-04-20 15:17 13.30036 78.43153 15978 ft 390 kts 271°
2026-04-20 15:18 13.30079 78.40370 15982 ft 390 kts 271°
2026-04-20 15:18 13.30123 78.37580 15983 ft 390 kts 271°
2026-04-20 15:18 13.30168 78.34800 15987 ft 390 kts 271°
2026-04-20 15:18 13.30210 78.32020 15991 ft 390 kts 271°
2026-04-20 15:19 13.30250 78.29238 15991 ft 389 kts 271°
2026-04-20 15:19 13.30288 78.26458 15990 ft 389 kts 271°
2026-04-20 15:19 13.30324 78.23684 15994 ft 389 kts 271°
2026-04-20 15:19 13.30362 78.20928 15846 ft 381 kts 271°
2026-04-20 15:20 13.30401 78.18247 15606 ft 370 kts 271°
2026-04-20 15:20 13.30443 78.15635 15375 ft 361 kts 271°
2026-04-20 15:20 13.30486 78.13092 15142 ft 352 kts 271°
2026-04-20 15:20 13.30528 78.10637 14912 ft 346 kts 271°
2026-04-20 15:21 13.30567 78.08176 14680 ft 343 kts 271°
2026-04-20 15:21 13.30579 78.07398 14606 ft 343 kts 271°
2026-04-20 15:21 13.30636 78.03348 14231 ft 341 kts 271°
2026-04-20 15:21 13.30669 78.00918 14010 ft 340 kts 271°
2026-04-20 15:22 13.30699 77.98503 13793 ft 338 kts 271°
2026-04-20 15:22 13.30732 77.96096 13538 ft 337 kts 271°
2026-04-20 15:22 13.30765 77.93698 13284 ft 335 kts 271°
2026-04-20 15:22 13.30797 77.91316 13036 ft 333 kts 271°
2026-04-20 15:23 13.30830 77.88941 12787 ft 331 kts 271°
2026-04-20 15:23 13.30860 77.86592 12540 ft 326 kts 271°
2026-04-20 15:23 13.30889 77.84283 12292 ft 321 kts 271°
2026-04-20 15:23 13.30918 77.82008 12054 ft 316 kts 271°
2026-04-20 15:24 13.30939 77.80526 11907 ft 312 kts 271°
2026-04-20 15:24 13.30968 77.78367 12005 ft 294 kts 271°
2026-04-20 15:24 13.30999 77.75601 11749 ft 288 kts 270°
2026-04-20 15:24 13.31010 77.74245 11591 ft 286 kts 270°
2026-04-20 15:25 13.31025 77.72216 11354 ft 283 kts 270°
2026-04-20 15:25 13.31041 77.70209 11115 ft 280 kts 270°
2026-04-20 15:25 13.31056 77.68219 10879 ft 277 kts 270°
2026-04-20 15:25 13.31071 77.66248 10646 ft 275 kts 270°
2026-04-20 15:26 13.31092 77.63657 10350 ft 272 kts 270°
2026-04-20 15:26 13.31102 77.62360 10270 ft 267 kts 269°
2026-04-20 15:26 13.31116 77.60482 10156 ft 259 kts 269°
2026-04-20 15:26 13.31131 77.58650 9968 ft 255 kts 269°
2026-04-20 15:27 13.31144 77.56836 9714 ft 253 kts 269°
2026-04-20 15:27 13.31159 77.55031 9442 ft 252 kts 269°
2026-04-20 15:27 13.31172 77.53236 9165 ft 251 kts 269°
2026-04-20 15:27 13.31184 77.51441 8883 ft 251 kts 269°
2026-04-20 15:28 13.31194 77.49678 8619 ft 250 kts 269°
2026-04-20 15:28 13.31207 77.47897 8489 ft 242 kts 269°
2026-04-20 15:28 13.31221 77.46218 8367 ft 235 kts 269°
2026-04-20 15:28 13.31031 77.44589 8167 ft 227 kts 244°
2026-04-20 15:29 13.30078 77.43333 7910 ft 220 kts 210°
2026-04-20 15:29 13.28685 77.42843 7636 ft 215 kts 184°
2026-04-20 15:29 13.27194 77.42742 7360 ft 215 kts 179°
2026-04-20 15:29 13.25699 77.42704 7104 ft 214 kts 177°
2026-04-20 15:30 13.24244 77.42890 6880 ft 210 kts 165°
2026-04-20 15:30 13.22904 77.43446 6627 ft 207 kts 146°
2026-04-20 15:30 13.21833 77.44411 6378 ft 205 kts 127°
2026-04-20 15:30 13.21137 77.45674 6118 ft 204 kts 109°
2026-04-20 15:31 13.20886 77.47092 6006 ft 204 kts 92°
2026-04-20 15:31 13.20876 77.48495 6018 ft 187 kts 92°
2026-04-20 15:31 13.20868 77.49769 5998 ft 170 kts 92°
2026-04-20 15:31 13.20859 77.50933 5995 ft 159 kts 92°
2026-04-20 15:32 13.20850 77.52059 5933 ft 157 kts 93°
2026-04-20 15:32 13.20841 77.53172 5788 ft 155 kts 92°
2026-04-20 15:32 13.20832 77.54279 5609 ft 155 kts 92°
2026-04-20 15:32 13.20824 77.55376 5446 ft 152 kts 93°
2026-04-20 15:33 13.20815 77.56454 5244 ft 151 kts 93°
2026-04-20 15:33 13.20807 77.57531 5058 ft 150 kts 93°
2026-04-20 15:33 13.20798 77.58603 4873 ft 150 kts 95°
2026-04-20 15:33 13.20788 77.59674 4682 ft 151 kts 94°
2026-04-20 15:34 13.20780 77.60742 4488 ft 150 kts 93°
2026-04-20 15:34 13.20773 77.61816 4299 ft 151 kts 93°
2026-04-20 15:34 13.20764 77.62882 4112 ft 149 kts 92°
2026-04-20 15:34 13.20755 77.63939 3923 ft 149 kts 91°
2026-04-20 15:35 13.20747 77.64828 3764 ft 149 kts 92°
2026-04-20 15:35 13.20739 77.65889 3581 ft 148 kts 91°
2026-04-20 15:35 13.20730 77.66947 3390 ft 149 kts 91°
2026-04-20 15:35 13.20721 77.68007 3198 ft 149 kts 91°
2026-04-20 15:36 13.20717 77.69064 3022 ft 143 kts 92°
2026-04-20 15:36 13.20706 77.69979 3011 ft 113 kts 90°
2026-04-20 15:36 13.20699 77.70649 3011 ft 73 kts 89°
2026-04-20 15:36 13.20682 77.70940 3014 ft 19 kts 148°